Time,TemperatureF,DewpointF,PressureIn,WindDirection,WindDirectionDegrees,WindSpeedMPH,WindSpeedGustMPH,Humidity,HourlyPrecipIn,Conditions,Clouds,dailyrainin,SoftwareType,DateUTC
2013-01-20 00:02:00,5.0,-1.0,29.79,West,263,2.0,13.0,75,0.00,,,0.01,,2013-01-20 06:02:00,
2013-01-20 00:12:00,5.0,-1.0,29.79,West,263,2.0,13.0,75,0.00,,,0.01,,2013-01-20 06:12:00,
2013-01-20 00:22:00,5.0,-1.0,29.79,West,281,1.0,10.0,76,0.00,,,0.01,,2013-01-20 06:22:00,
2013-01-20 00:33:00,5.0,-1.0,29.80,NW,320,1.0,13.0,76,0.00,,,0.01,,2013-01-20 06:33:00,
2013-01-20 00:42:00,5.0,-1.0,29.80,NW,320,1.0,13.0,76,0.00,,,0.01,,2013-01-20 06:42:00,
2013-01-20 00:53:00,5.0,0.0,29.82,ENE,65,0.0,10.0,78,0.00,,,0.01,,2013-01-20 06:53:00,
2013-01-20 01:02:00,5.0,0.0,29.83,NW,314,0.0,5.0,79,0.00,,,0.01,,2013-01-20 07:02:00,
2013-01-20 01:12:00,5.0,0.0,29.83,NW,314,0.0,5.0,79,0.00,,,0.01,,2013-01-20 07:12:00,
2013-01-20 01:22:00,5.0,0.0,29.85,West,270,2.0,12.0,79,0.00,,,0.01,,2013-01-20 07:22:00,
2013-01-20 01:32:00,5.0,0.0,29.85,West,270,2.0,12.0,79,0.00,,,0.01,,2013-01-20 07:32:00,
2013-01-20 01:42:00,5.0,0.0,29.85,West,270,2.0,12.0,79,0.00,,,0.01,,2013-01-20 07:42:00,
2013-01-20 01:52:00,5.0,0.0,29.88,WNW,294,1.0,7.0,81,0.00,,,0.01,,2013-01-20 07:52:00,
2013-01-20 02:02:00,5.0,0.0,29.90,NW,313,1.0,12.0,78,0.00,,,0.01,,2013-01-20 08:02:00,
2013-01-20 02:12:00,5.0,0.0,29.90,NW,313,1.0,12.0,78,0.00,,,0.01,,2013-01-20 08:12:00,
2013-01-20 02:22:00,5.0,0.0,29.91,NE,37,1.0,7.0,78,0.00,,,0.01,,2013-01-20 08:22:00,
2013-01-20 02:32:00,5.0,0.0,29.91,NE,37,1.0,7.0,78,0.00,,,0.01,,2013-01-20 08:32:00,
2013-01-20 02:42:00,5.0,0.0,29.91,NE,37,1.0,7.0,78,0.00,,,0.01,,2013-01-20 08:42:00,
2013-01-20 02:52:00,5.0,-1.0,29.95,South,174,1.0,9.0,77,0.00,,,0.01,,2013-01-20 08:52:00,
2013-01-20 03:02:00,5.0,-1.0,29.96,NW,316,1.0,13.0,76,0.00,,,0.01,,2013-01-20 09:02:00,
2013-01-20 03:12:00,5.0,-1.0,29.96,NW,316,1.0,13.0,76,0.00,,,0.01,,2013-01-20 09:12:00,
2013-01-20 03:22:00,5.0,-1.0,29.96,NNW,329,1.0,9.0,77,0.00,,,0.01,,2013-01-20 09:22:00,
2013-01-20 03:33:00,4.0,-1.0,29.97,West,274,0.0,5.0,78,0.00,,,0.01,,2013-01-20 09:33:00,
2013-01-20 03:42:00,4.0,-1.0,29.97,West,274,0.0,5.0,78,0.00,,,0.01,,2013-01-20 09:42:00,
2013-01-20 03:52:00,4.0,-1.0,29.98,WNW,282,0.0,6.0,81,0.00,,,0.01,,2013-01-20 09:52:00,
2013-01-20 04:02:00,4.0,-1.0,29.98,WNW,282,0.0,6.0,81,0.00,,,0.01,,2013-01-20 10:02:00,
2013-01-20 04:12:00,4.0,-1.0,29.98,WNW,282,0.0,6.0,81,0.00,,,0.01,,2013-01-20 10:12:00,
2013-01-20 04:22:00,4.0,-1.0,29.99,WSW,239,0.0,4.0,81,0.00,,,0.01,,2013-01-20 10:22:00,
2013-01-20 04:32:00,4.0,-1.0,30.00,NNE,12,1.0,6.0,80,0.00,,,0.01,,2013-01-20 10:32:00,
2013-01-20 04:42:00,4.0,-1.0,30.00,NNE,12,1.0,6.0,80,0.00,,,0.01,,2013-01-20 10:42:00,
2013-01-20 04:52:00,4.0,0.0,30.01,NNW,331,0.0,7.0,83,0.00,,,0.01,,2013-01-20 10:52:00,
2013-01-20 05:02:00,4.0,0.0,30.01,NNW,331,0.0,14.0,82,0.00,,,0.01,,2013-01-20 11:02:00,
2013-01-20 05:12:00,4.0,0.0,30.01,NNW,331,0.0,14.0,82,0.00,,,0.01,,2013-01-20 11:12:00,
2013-01-20 05:22:00,4.0,0.0,30.02,West,259,0.0,3.0,82,0.00,,,0.01,,2013-01-20 11:22:00,
2013-01-20 05:33:00,4.0,0.0,30.03,South,178,0.0,5.0,84,0.00,,,0.01,,2013-01-20 11:33:00,
2013-01-20 05:42:00,4.0,0.0,30.03,South,178,0.0,5.0,84,0.00,,,0.01,,2013-01-20 11:42:00,
2013-01-20 05:53:00,4.0,-1.0,30.05,West,271,1.0,9.0,78,0.00,,,0.01,,2013-01-20 11:53:00,
2013-01-20 06:03:00,3.0,-3.0,30.06,SSE,164,0.0,7.0,77,0.00,,,0.01,,2013-01-20 12:03:00,
2013-01-20 06:12:00,3.0,-3.0,30.06,SSE,164,0.0,7.0,77,0.00,,,0.01,,2013-01-20 12:12:00,
2013-01-20 06:23:00,3.0,-2.0,30.07,WNW,295,0.0,4.0,78,0.00,,,0.01,,2013-01-20 12:23:00,
2013-01-20 06:33:00,3.0,-2.0,30.08,NW,308,1.0,7.0,78,0.00,,,0.01,,2013-01-20 12:33:00,
2013-01-20 06:43:00,3.0,-2.0,30.08,NW,308,1.0,7.0,78,0.00,,,0.01,,2013-01-20 12:43:00,
2013-01-20 06:52:00,3.0,-1.0,30.08,NW,326,0.0,6.0,81,0.00,,,0.01,,2013-01-20 12:52:00,
2013-01-20 07:03:00,3.0,-2.0,30.09,East,82,1.0,6.0,78,0.00,,,0.01,,2013-01-20 13:03:00,
2013-01-20 07:12:00,3.0,-2.0,30.09,East,82,1.0,6.0,78,0.00,,,0.01,,2013-01-20 13:12:00,
2013-01-20 07:23:00,3.0,-2.0,30.11,NW,315,0.0,3.0,78,0.00,,,0.01,,2013-01-20 13:23:00,
2013-01-20 07:33:00,2.0,-3.0,30.11,North,11,0.0,7.0,78,0.00,,,0.01,,2013-01-20 13:33:00,
2013-01-20 07:43:00,2.0,-3.0,30.11,North,11,0.0,7.0,78,0.00,,,0.01,,2013-01-20 13:43:00,
2013-01-20 07:52:00,1.0,-4.0,30.12,WNW,293,0.0,2.0,79,0.00,,,0.01,,2013-01-20 13:52:00,
2013-01-20 08:02:00,1.0,-4.0,30.13,WSW,257,0.0,2.0,80,0.00,,,0.01,,2013-01-20 14:02:00,
2013-01-20 08:12:00,1.0,-4.0,30.13,WSW,257,0.0,2.0,80,0.00,,,0.01,,2013-01-20 14:12:00,
2013-01-20 08:23:00,1.0,-3.0,30.14,SSE,153,0.0,1.0,82,0.00,,,0.01,,2013-01-20 14:23:00,
2013-01-20 08:33:00,1.0,-3.0,30.15,West,271,0.0,3.0,83,0.00,,,0.01,,2013-01-20 14:33:00,
2013-01-20 08:43:00,1.0,-3.0,30.15,West,271,0.0,3.0,83,0.00,,,0.01,,2013-01-20 14:43:00,
2013-01-20 08:53:00,2.0,-2.0,30.15,WNW,289,0.0,3.0,83,0.00,,,0.01,,2013-01-20 14:53:00,
2013-01-20 09:03:00,3.0,-1.0,30.16,WNW,283,0.0,3.0,83,0.00,,,0.01,,2013-01-20 15:03:00,
2013-01-20 09:12:00,3.0,-1.0,30.16,WNW,283,0.0,3.0,83,0.00,,,0.01,,2013-01-20 15:12:00,
2013-01-20 09:23:00,4.0,0.0,30.16,North,353,0.0,3.0,82,0.00,,,0.01,,2013-01-20 15:23:00,
2013-01-20 09:33:00,5.0,0.0,30.17,WNW,293,0.0,8.0,80,0.00,,,0.01,,2013-01-20 15:33:00,
2013-01-20 09:42:00,5.0,0.0,30.17,WNW,293,0.0,8.0,80,0.00,,,0.01,,2013-01-20 15:42:00,
2013-01-20 09:52:00,5.0,0.0,30.17,WNW,293,0.0,8.0,80,0.00,,,0.01,,2013-01-20 15:52:00,
2013-01-20 10:03:00,6.0,0.0,30.17,SW,236,0.0,7.0,75,0.00,,,0.01,,2013-01-20 16:03:00,
2013-01-20 10:12:00,6.0,0.0,30.17,SW,236,0.0,7.0,75,0.00,,,0.01,,2013-01-20 16:12:00,
2013-01-20 10:23:00,6.0,0.0,30.18,NW,316,0.0,9.0,74,0.00,,,0.01,,2013-01-20 16:23:00,
2013-01-20 10:33:00,7.0,0.0,30.18,NE,41,1.0,8.0,73,0.00,,,0.01,,2013-01-20 16:33:00,
2013-01-20 10:43:00,7.0,0.0,30.18,NE,41,1.0,8.0,73,0.00,,,0.01,,2013-01-20 16:43:00,
2013-01-20 10:52:00,7.0,0.0,30.18,WNW,295,1.0,7.0,72,0.00,,,0.01,,2013-01-20 16:52:00,
2013-01-20 11:03:00,8.0,1.0,30.18,SW,236,0.0,3.0,71,0.00,,,0.01,,2013-01-20 17:03:00,
2013-01-20 11:12:00,8.0,1.0,30.18,SW,236,0.0,3.0,71,0.00,,,0.01,,2013-01-20 17:12:00,
2013-01-20 11:22:00,8.0,0.0,30.18,SW,233,0.0,6.0,68,0.00,,,0.01,,2013-01-20 17:22:00,
2013-01-20 11:33:00,8.0,1.0,30.18,NNE,22,0.0,5.0,72,0.00,,,0.01,,2013-01-20 17:33:00,
2013-01-20 11:42:00,8.0,1.0,30.18,NNE,22,0.0,5.0,72,0.00,,,0.01,,2013-01-20 17:42:00,
2013-01-20 11:52:00,8.0,2.0,30.18,NNW,327,0.0,4.0,75,0.00,,,0.01,,2013-01-20 17:52:00,
2013-01-20 12:03:00,8.0,2.0,30.18,NNW,342,0.0,2.0,77,0.00,,,0.01,,2013-01-20 18:03:00,
2013-01-20 12:13:00,8.0,2.0,30.18,NNW,342,0.0,2.0,77,0.00,,,0.01,,2013-01-20 18:13:00,
2013-01-20 12:23:00,8.0,2.0,30.18,NNW,342,0.0,2.0,77,0.00,,,0.01,,2013-01-20 18:23:00,
2013-01-20 12:33:00,9.0,2.0,30.17,WSW,254,0.0,4.0,74,0.00,,,0.01,,2013-01-20 18:33:00,
2013-01-20 12:43:00,9.0,2.0,30.17,WSW,254,0.0,4.0,74,0.00,,,0.01,,2013-01-20 18:43:00,
2013-01-20 12:53:00,9.0,0.0,30.17,NNW,331,0.0,4.0,67,0.00,,,0.01,,2013-01-20 18:53:00,
2013-01-20 13:02:00,9.0,0.0,30.17,West,277,0.0,5.0,65,0.00,,,0.01,,2013-01-20 19:02:00,
2013-01-20 13:12:00,9.0,0.0,30.17,West,277,0.0,5.0,65,0.00,,,0.01,,2013-01-20 19:12:00,
2013-01-20 13:22:00,9.0,0.0,30.17,West,260,0.0,9.0,65,0.00,,,0.01,,2013-01-20 19:22:00,
2013-01-20 13:33:00,10.0,0.0,30.16,NW,312,0.0,2.0,63,0.00,,,0.01,,2013-01-20 19:33:00,
2013-01-20 13:43:00,10.0,0.0,30.16,NW,312,0.0,2.0,63,0.00,,,0.01,,2013-01-20 19:43:00,
2013-01-20 13:52:00,10.0,0.0,30.16,NW,312,0.0,2.0,63,0.00,,,0.01,,2013-01-20 19:52:00,
2013-01-20 14:03:00,10.0,1.0,30.17,NW,316,0.0,4.0,65,0.00,,,0.01,,2013-01-20 20:03:00,
2013-01-20 14:12:00,10.0,1.0,30.17,NW,316,0.0,4.0,65,0.00,,,0.01,,2013-01-20 20:12:00,
2013-01-20 14:23:00,9.0,3.0,30.18,North,360,1.0,4.0,75,0.00,,,0.01,,2013-01-20 20:23:00,
2013-01-20 14:33:00,8.0,1.0,30.18,NNW,338,1.0,7.0,73,0.00,,,0.01,,2013-01-20 20:33:00,
2013-01-20 14:42:00,8.0,1.0,30.18,NNW,338,1.0,7.0,73,0.00,,,0.01,,2013-01-20 20:42:00,
2013-01-20 14:53:00,8.0,0.0,30.18,WSW,250,1.0,5.0,69,0.00,,,0.01,,2013-01-20 20:53:00,
2013-01-20 15:03:00,8.0,-1.0,30.18,SSE,160,0.0,5.0,67,0.00,,,0.01,,2013-01-20 21:03:00,
2013-01-20 15:13:00,8.0,-1.0,30.18,SSE,160,0.0,5.0,67,0.00,,,0.01,,2013-01-20 21:13:00,
2013-01-20 15:23:00,7.0,-1.0,30.17,West,278,0.0,7.0,68,0.00,,,0.01,,2013-01-20 21:23:00,
2013-01-20 15:33:00,7.0,0.0,30.18,NNW,342,0.0,5.0,72,0.00,,,0.00,,2013-01-20 21:33:00,
2013-01-20 15:43:00,7.0,0.0,30.18,NNW,342,0.0,5.0,72,0.00,,,0.00,,2013-01-20 21:43:00,
2013-01-20 15:53:00,7.0,0.0,30.18,East,80,0.0,2.0,74,0.00,,,0.00,,2013-01-20 21:53:00,
2013-01-20 16:03:00,7.0,1.0,30.18,West,259,0.0,2.0,77,0.00,,,0.00,,2013-01-20 22:03:00,
2013-01-20 16:13:00,7.0,1.0,30.18,West,259,0.0,2.0,77,0.00,,,0.00,,2013-01-20 22:13:00,
2013-01-20 16:22:00,6.0,1.0,30.18,NW,321,0.0,1.0,79,0.00,,,0.00,,2013-01-20 22:22:00,
2013-01-20 16:33:00,6.0,1.0,30.18,WSW,248,0.0,3.0,78,0.00,,,0.00,,2013-01-20 22:33:00,
2013-01-20 16:43:00,6.0,1.0,30.18,WSW,248,0.0,3.0,78,0.00,,,0.00,,2013-01-20 22:43:00,
2013-01-20 16:52:00,5.0,0.0,30.19,NW,318,0.0,3.0,78,0.00,,,0.00,,2013-01-20 22:52:00,
2013-01-20 17:03:00,5.0,0.0,30.18,NW,305,0.0,4.0,78,0.00,,,0.00,,2013-01-20 23:03:00,
2013-01-20 17:13:00,5.0,0.0,30.18,NW,305,0.0,4.0,78,0.00,,,0.00,,2013-01-20 23:13:00,
2013-01-20 17:23:00,4.0,-2.0,30.19,NNW,329,0.0,2.0,75,0.00,,,0.00,,2013-01-20 23:23:00,
2013-01-20 17:33:00,3.0,-4.0,30.19,West,278,0.0,2.0,73,0.00,,,0.00,,2013-01-20 23:33:00,
2013-01-20 17:43:00,3.0,-4.0,30.19,West,278,0.0,2.0,73,0.00,,,0.00,,2013-01-20 23:43:00,
2013-01-20 17:53:00,1.0,-4.0,30.19,West,280,0.0,1.0,78,0.00,,,0.00,,2013-01-20 23:53:00,
2013-01-20 18:03:00,-1.0,-6.0,30.19,North,354,0.0,0.0,80,0.00,,,0.00,,2013-01-21 00:03:00,
2013-01-20 18:13:00,-1.0,-6.0,30.19,North,354,0.0,0.0,80,0.00,,,0.00,,2013-01-21 00:13:00,
2013-01-20 18:23:00,-3.0,-7.0,30.19,North,354,0.0,0.0,82,0.00,,,0.00,,2013-01-21 00:23:00,
2013-01-20 18:33:00,-5.0,-9.0,30.20,North,354,0.0,0.0,84,0.00,,,0.00,,2013-01-21 00:33:00,
2013-01-20 18:43:00,-5.0,-9.0,30.20,North,354,0.0,0.0,84,0.00,,,0.00,,2013-01-21 00:43:00,
2013-01-20 18:53:00,-7.0,-11.0,30.20,North,354,0.0,0.0,84,0.00,,,0.00,,2013-01-21 00:53:00,
2013-01-20 19:03:00,-9.0,-12.0,30.20,North,354,0.0,0.0,85,0.00,,,0.00,,2013-01-21 01:03:00,
2013-01-20 19:13:00,-9.0,-12.0,30.20,North,354,0.0,0.0,85,0.00,,,0.00,,2013-01-21 01:13:00,
2013-01-20 19:23:00,-10.0,-13.0,30.20,North,354,0.0,0.0,85,0.00,,,0.00,,2013-01-21 01:23:00,
2013-01-20 19:33:00,-10.0,-13.0,30.20,North,354,0.0,0.0,85,0.00,,,0.00,,2013-01-21 01:33:00,
2013-01-20 19:43:00,-10.0,-13.0,30.20,North,354,0.0,0.0,85,0.00,,,0.00,,2013-01-21 01:43:00,
2013-01-20 19:52:00,-12.0,-16.0,30.20,North,354,0.0,0.0,83,0.00,,,0.00,,2013-01-21 01:52:00,
2013-01-20 20:03:00,-12.0,-15.0,30.20,North,354,0.0,0.0,85,0.00,,,0.00,,2013-01-21 02:03:00,
2013-01-20 20:12:00,-12.0,-15.0,30.20,North,354,0.0,0.0,85,0.00,,,0.00,,2013-01-21 02:12:00,
2013-01-20 20:23:00,-13.0,-16.0,30.20,North,354,0.0,0.0,84,0.00,,,0.00,,2013-01-21 02:23:00,
2013-01-20 20:33:00,-14.0,-18.0,30.20,North,354,0.0,0.0,83,0.00,,,0.00,,2013-01-21 02:33:00,
2013-01-20 20:43:00,-14.0,-18.0,30.20,North,354,0.0,0.0,83,0.00,,,0.00,,2013-01-21 02:43:00,
2013-01-20 20:53:00,-14.0,-18.0,30.20,North,354,0.0,0.0,83,0.00,,,0.00,,2013-01-21 02:53:00,
2013-01-20 21:03:00,-15.0,-18.0,30.20,North,354,0.0,0.0,84,0.00,,,0.00,,2013-01-21 03:03:00,
2013-01-20 21:13:00,-15.0,-18.0,30.20,North,354,0.0,0.0,84,0.00,,,0.00,,2013-01-21 03:13:00,
2013-01-20 21:23:00,-15.0,-18.0,30.20,North,354,0.0,0.0,84,0.00,,,0.00,,2013-01-21 03:23:00,
2013-01-20 21:33:00,-14.0,-17.0,30.20,North,354,0.0,0.0,84,0.00,,,0.00,,2013-01-21 03:33:00,
2013-01-20 21:43:00,-14.0,-17.0,30.20,North,354,0.0,0.0,84,0.00,,,0.00,,2013-01-21 03:43:00,
2013-01-20 21:53:00,-13.0,-16.0,30.19,West,269,0.0,0.0,85,0.00,,,0.00,,2013-01-21 03:53:00,
2013-01-20 22:03:00,-12.0,-15.0,30.19,West,269,0.0,0.0,85,0.00,,,0.00,,2013-01-21 04:03:00,
2013-01-20 22:12:00,-12.0,-15.0,30.19,West,269,0.0,0.0,85,0.00,,,0.00,,2013-01-21 04:12:00,
2013-01-20 22:23:00,-13.0,-16.0,30.18,West,269,0.0,0.0,84,0.00,,,0.00,,2013-01-21 04:23:00,
2013-01-20 22:33:00,-13.0,-16.0,30.18,West,269,0.0,0.0,84,0.00,,,0.00,,2013-01-21 04:33:00,
2013-01-20 22:42:00,-13.0,-16.0,30.18,West,269,0.0,0.0,84,0.00,,,0.00,,2013-01-21 04:42:00,
2013-01-20 22:53:00,-13.0,-16.0,30.17,West,268,0.0,0.0,84,0.00,,,0.00,,2013-01-21 04:53:00,
2013-01-20 23:03:00,-13.0,-16.0,30.16,West,269,0.0,0.0,84,0.00,,,0.00,,2013-01-21 05:03:00,
2013-01-20 23:12:00,-13.0,-16.0,30.16,West,269,0.0,0.0,84,0.00,,,0.00,,2013-01-21 05:12:00,
2013-01-20 23:22:00,-13.0,-16.0,30.16,West,269,0.0,0.0,84,0.00,,,0.00,,2013-01-21 05:22:00,
2013-01-20 23:34:00,-14.0,-18.0,30.16,West,268,0.0,0.0,83,0.00,,,0.00,,2013-01-21 05:34:00,
2013-01-20 23:42:00,-14.0,-18.0,30.16,West,268,0.0,0.0,83,0.00,,,0.00,,2013-01-21 05:42:00,
2013-01-20 23:53:00,-14.0,-18.0,30.16,West,268,0.0,0.0,83,0.00,,,0.00,,2013-01-21 05:53:00,